Wind_Speed
4 5 6 8 5 0 6 4 5 5 3 8 10 13 10 10 5 1 4 5 6 5 4 3 4 6 6 5 5 6 6 8 10 10 7 10 17 22 24 23 20 15 12 10 6 6 7 6 7
2 4 5 8 4 9 8 6 7 4 4 7 10 8 6 11 6 3 3 4 5 5 4 4 4 5 6 6 5 5 6 7 8 10 11 7 10 16 21 19 16 13 8 8 9 10 10 10 11
1 2 6 3 3 10 14 7 7 4 7 9 6 7 12 12 9 4 2 3 4 5 4 4 4 6 6 6 6 7 7 7 8 10 12 11 7 9 13 13 11 8 9 10 12 12 11 10 10
2 5 7 6 2 10 10 8 7 4 5 11 4 7 12 10 8 3 1 2 4 5 6 4 5 5 6 7 7 7 8 8 9 10 12 14 14 9 7 7 8 8 8 7 8 9 10 10 10
6 12 4 2 8 6 2 9 8 3 6 10 3 10 11 12 7 2 1 2 3 5 7 7 6 6 7 8 9 9 10 9 9 10 11 12 13 14 13 11 9 8 7 6 5 5 6 9 11
8 8 3 5 7 6 5 9 8 5 3 11 9 7 13 13 10 4 2 2 2 5 6 7 8 7 8 9 9 9 10 9 9 9 9 10 11 11 12 11 11 10 9 9 9 9 9 10 10
7 3 5 10 8 8 4 11 5 6 3 6 6 8 10 14 11 5 3 1 1 2 3 5 5 6 7 7 8 8 8 7 7 7 6 7 8 8 9 9 8 8 7 7 8 8 9 10 11
17 10 8 6 9 7 3 5 11 6 3 5 4 4 11 11 11 8 2 2 2 2 1 1 2 2 3 4 4 5 6 5 5 4 5 5 5 6 5 6 5 5 5 5 5 6 7 8 9
13 7 9 7 5 5 6 1 6 4 1 2 4 3 6 9 9 9 5 3 3 3 4 2 2 2 2 2 3 2 3 4 4 3 3 3 3 3 4 4 4 3 4 4 5 5 5 6 7
8 10 8 6 10 6 6 10 5 4 8 5 4 1 4 6 8 9 9 4 5 5 6 4 5 4 4 4 3 3 4 3 3 3 2 1 1 1 2 2 2 3 3 3 4 4 5 5 6
6 6 7 6 14 13 7 4 9 8 10 6 4 6 4 6 8 8 10 8 3 5 6 8 7 7 6 6 6 6 5 5 5 4 3 2 2 2 2 2 2 3 3 3 4 4 5 6 6
3 8 9 4 9 12 11 2 6 10 7 8 7 7 9 8 9 10 10 9 6 5 7 8 9 8 9 7 8 8 8 7 6 6 6 5 4 4 4 4 4 4 4 4 5 5 6 6 7
2 3 6 6 10 8 5 6 6 5 8 10 11 13 13 13 12 12 11 11 9 6 7 9 9 10 10 11 11 9 10 9 9 8 8 8 7 7 6 6 6 6 5 6 6 6 7 7 8
5 6 6 5 5 9 8 9 12 8 12 14 15 12 12 14 14 13 13 13 11 10 8 8 10 10 11 12 11 12 11 11 11 10 10 10 10 9 9 9 8 8 7 7 8 8 9 9 9
9 8 5 4 4 6 6 2 6 7 8 9 11 11 11 12 14 17 19 17 14 15 13 10 10 10 12 13 13 13 13 12 12 12 12 12 11 12 12 11 11 10 10 10 10 10 10 11 10
7 7 6 3 2 3 2 7 5 6 8 11 13 12 13 11 15 16 19 19 19 19 18 14 13 12 12 12 13 13 14 14 13 13 13 14 13 13 14 14 13 13 12 12 12 11 12 12 12
3 9 10 5 5 6 4 7 8 8 10 11 12 11 12 13 14 17 18 20 21 20 21 19 16 15 14 13 13 13 14 15 15 15 15 15 14 14 15 16 15 15 14 14 14 14 13 13 13
8 5 5 2 1 5 9 11 11 8 9 10 10 10 12 13 13 15 18 20 21 22 22 23 19 18 17 14 14 14 15 16 16 17 17 17 16 16 16 17 17 17 16 16 16 16 15 15 15
1 3 1 7 9 8 6 9 8 8 8 10 11 11 12 13 12 12 15 19 22 21 22 25 22 20 18 16 16 16 16 15 16 17 18 19 18 18 18 18 17 17 18 18 18 18 17 17 17
4 1 6 8 8 5 8 7 8 8 8 9 10 10 11 12 12 11 11 13 19 24 26 24 25 23 21 19 18 17 17 16 17 18 19 19 19 20 19 19 19 18 18 18 18 19 19 19 19
3 5 2 6 7 6 8 11 11 7 8 9 9 9 10 10 10 10 8 8 11 20 25 26 26 26 24 22 20 19 17 18 19 18 18 19 18 18 19 19 19 19 18 18 19 19 19 20 20
4 7 8 6 3 4 10 1 12 11 8 7 7 8 8 8 8 8 6 5 5 9 18 23 24 27 27 24 23 22 20 20 20 19 19 19 18 18 18 18 18 18 18 18 19 20 20 20 20
7 8 8 6 9 10 12 6 14 13 9 10 5 5 4 4 5 7 7 4 4 5 8 11 16 20 23 23 24 23 23 22 22 20 20 18 17 16 17 17 18 17 18 19 19 20 20 21 21
7 6 7 8 6 7 16 20 16 12 17 13 8 6 2 2 5 8 9 8 4 3 6 9 12 17 21 24 25 25 24 23 22 21 19 18 17 17 18 18 19 19 19 19 20 21 21 21 22
6 1 4 3 4 3 7 13 7 17 17 16 10 9 6 2 2 5 7 8 8 6 4 4 7 10 13 16 20 22 23 23 22 21 21 21 22 23 23 23 23 24 24 24 24 23 23 24 24
2 7 5 3 2 1 4 5 8 17 18 16 12 11 9 6 4 3 3 4 5 6 5 3 3 4 6 9 12 16 19 21 23 24 25 26 27 28 28 29 30 30 30 29 29 29 27 27 27
7 5 7 7 18 10 7 7 9 15 13 13 14 13 12 10 8 7 6 5 4 3 3 3 2 1 2 5 8 10 13 16 19 22 23 25 26 27 28 28 28 28 27 27 28 28 27 29 30
11 8 3 5 3 4 10 6 3 9 8 11 13 15 15 15 13 11 11 10 9 9 8 7 6 5 5 5 5 6 7 9 11 13 15 16 18 19 19 19 19 19 19 20 22 23 24 25 25
3 3 5 8 8 2 3 2 4 6 8 8 13 15 16 15 14 15 16 16 15 15 14 14 13 13 13 13 13 13 14 15 15 16 17 18 19 20 20 21 21 21 21 22 21 20 20 21 21
14 13 10 4 5 3 3 3 3 6 10 10 16 15 14 15 17 19 20 21 21 21 21 21 20 20 20 21 22 22 22 22 23 24 24 24 24 25 25 25 25 24 25 27 24 23 23 22 21
Wind_Direction
45 64 86 130 111 199 235 128 69 107 350 49 51 40 21 16 38 343 356 8 16 26 40 80 103 125 135 116 103 92 77 71 61 56 83 166 192 196 205 207 208 215 200 211 211 213 199 207 207
20 62 91 138 148 215 107 95 132 119 76 55 64 97 318 5 10 358 354 7 18 36 55 96 115 125 135 133 133 111 93 84 77 70 68 106 175 195 207 212 213 212 201 210 224 234 227 212 218
337 44 114 45 292 10 119 104 130 123 57 56 3 28 21 1 3 356 358 7 33 43 67 91 112 123 129 126 129 123 117 100 86 80 76 75 109 169 199 214 215 211 208 212 217 230 239 228 211
357 105 87 153 169 69 103 112 122 68 32 39 69 339 10 9 358 11 7 15 67 53 63 78 102 111 123 130 126 123 116 110 101 93 85 80 80 99 140 165 181 190 206 219 229 236 238 229 207
71 104 142 263 99 108 125 125 104 91 77 63 15 43 21 20 7 37 105 44 52 79 77 77 90 101 113 123 126 127 121 116 104 94 89 87 85 87 96 107 126 140 137 138 146 156 164 163 175
67 120 195 150 131 116 88 112 126 83 71 94 26 17 26 24 31 58 79 60 49 85 85 82 86 98 109 115 118 120 116 112 107 99 94 94 96 95 93 97 101 103 106 112 116 118 120 128 144
119 24 36 122 128 135 109 119 112 114 122 101 99 6 29 28 26 29 31 13 348 79 83 91 97 100 106 111 116 119 118 116 112 108 103 97 98 99 102 104 107 110 113 119 124 125 124 132 140
112 89 108 118 150 97 173 150 142 94 154 133 119 47 25 22 21 15 348 312 307 310 351 93 111 116 127 130 130 130 133 132 131 123 120 114 110 112 116 117 121 127 133 136 137 140 144 146 152
96 119 118 90 118 93 83 255 194 138 199 92 65 65 33 22 15 15 356 282 262 261 269 205 255 231 195 191 178 177 174 156 154 159 150 140 128 131 132 134 136 147 155 149 158 163 164 167 172
63 125 132 113 115 98 127 124 121 94 143 104 194 92 22 8 13 15 13 322 272 256 257 248 249 250 252 239 225 225 223 212 202 196 199 185 201 191 177 168 168 177 182 185 184 187 186 190 189
68 163 137 150 154 119 102 149 157 147 188 211 294 311 330 329 336 341 354 1 294 267 268 270 253 251 248 256 250 247 250 248 249 243 239 243 248 248 234 213 210 216 217 220 217 211 211 211 213
80 145 148 194 159 146 155 78 195 195 203 236 273 301 294 297 302 314 324 331 337 276 261 267 272 266 263 248 260 261 256 257 257 261 260 258 254 252 251 246 236 232 235 233 234 232 224 224 224
120 152 173 185 186 187 179 167 227 222 261 265 272 274 283 286 287 290 293 298 306 303 270 263 264 269 267 271 264 258 266 265 263 261 264 262 262 261 257 254 253 249 243 244 242 238 235 230 227
157 123 112 120 168 187 208 224 247 260 266 265 268 270 273 271 263 252 259 269 275 288 288 274 266 265 268 267 268 270 265 263 263 262 261 263 264 264 262 259 255 253 254 252 248 239 239 233 232
140 102 76 97 119 161 202 263 241 259 262 260 273 271 283 258 245 239 238 234 252 264 273 279 273 266 264 268 268 267 266 265 265 266 267 265 263 264 263 262 260 258 256 255 254 249 240 238 234
144 161 202 225 217 195 177 263 265 250 268 275 288 293 291 282 256 250 246 248 252 252 262 267 276 278 278 274 274 270 269 267 266 267 265 266 265 266 265 265 262 260 259 259 260 260 252 244 237
204 242 212 261 227 234 204 259 260 249 263 275 282 286 290 292 268 254 246 242 245 253 260 259 265 272 274 279 276 273 269 266 265 266 268 270 269 268 268 266 264 260 261 262 262 262 260 254 246
279 229 207 226 276 168 211 227 259 262 266 276 280 287 296 301 294 267 252 244 240 245 251 258 255 262 272 278 281 280 277 273 268 267 269 271 273 272 271 269 268 266 263 262 263 264 262 259 254
175 169 101 217 258 168 212 244 268 268 271 276 282 289 295 298 301 288 268 252 240 240 243 250 252 252 262 271 276 283 288 289 287 282 276 275 275 275 274 273 271 271 270 267 266 267 269 271 266
210 170 236 257 292 183 243 249 268 275 275 280 287 291 299 306 308 301 286 265 246 234 232 238 245 245 251 258 265 277 287 297 294 292 291 288 285 282 281 280 278 275 272 272 270 267 267 269 271
295 217 246 260 283 209 235 248 270 277 271 272 283 293 301 305 310 314 302 287 259 241 232 229 237 241 243 249 259 269 280 285 293 301 304 302 297 291 288 285 281 280 278 275 274 272 271 271 272
266 248 264 243 245 294 219 145 206 245 271 273 287 300 305 311 323 331 318 302 265 244 243 240 246 240 241 245 254 261 267 274 284 297 302 306 304 301 295 290 286 282 277 275 275 273 270 268 270
244 258 262 232 242 281 236 246 167 223 254 279 274 284 306 332 350 356 356 318 275 236 228 238 248 250 252 254 258 261 264 271 282 291 298 301 301 302 300 297 294 289 285 283 276 273 273 273 268
264 287 294 274 247 249 249 208 184 211 242 263 253 242 248 20 30 27 26 18 342 276 243 235 235 238 244 249 252 253 254 259 268 280 285 290 294 295 296 299 300 298 293 287 283 280 276 271 270
257 146 221 245 201 245 123 184 186 201 220 245 251 231 236 258 358 16 24 25 27 13 336 283 257 248 245 244 245 247 249 254 261 269 275 281 284 287 290 292 291 292 292 290 287 282 279 277 273
192 247 284 297 34 139 189 204 194 227 239 258 241 230 235 244 263 295 330 2 13 18 18 2 321 287 268 258 251 246 247 251 258 265 270 273 278 281 284 285 286 286 286 286 284 282 281 277 273
204 222 252 295 284 266 190 182 199 247 252 240 234 236 241 249 257 268 280 289 303 328 354 11 13 337 274 260 256 256 260 264 267 269 270 273 276 278 281 282 283 284 283 282 281 281 280 276 272
241 242 269 230 269 260 201 143 231 229 248 239 237 241 247 253 260 267 271 274 280 283 283 281 280 276 277 274 270 268 268 268 269 271 274 278 280 282 283 285 287 289 290 287 283 282 283 281 280
198 243 255 268 268 263 324 91 107 292 260 255 242 254 256 261 268 274 278 279 280 280 279 280 280 279 279 279 279 279 281 282 283 284 283 282 281 280 280 281 282 283 285 285 286 289 290 290 286
248 231 228 227 301 245 284 251 259 212 253 255 255 269 271 269 273 275 277 279 280 281 282 282 281 282 283 284 285 285 285 287 288 288 287 286 284 283 282 280 280 280 280 280 281 281 283 285 287
Height
3149 3149 3149 3150 3156 3154 3153 3156 3157 3158 3157 3158 3158 3156 3156 3157 3156 3159 3156 3155 3155 3155 3154 3155 3155 3156 3156 3155 3155 3155 3155 3156 3155 3154 3154 3155 3156 3158 3160 3162 3166 3168 3172 3173 3174 3176 3177 3177 3178
3149 3148 3150 3151 3154 3153 3155 3156 3156 3158 3160 3159 3159 3160 3157 3157 3156 3156 3156 3156 3156 3155 3155 3156 3156 3157 3158 3157 3157 3157 3157 3157 3158 3157 3156 3156 3157 3159 3160 3162 3166 3170 3172 3173 3174 3174 3176 3177 3178
3149 3149 3151 3152 3153 3155 3154 3155 3157 3160 3161 3160 3160 3160 3159 3157 3156 3156 3157 3157 3157 3157 3156 3155 3156 3157 3158 3159 3159 3159 3159 3159 3159 3159 3159 3158 3158 3159 3161 3164 3167 3169 3171 3172 3173 3174 3175 3176 3177
3148 3150 3153 3153 3155 3156 3156 3157 3159 3162 3162 3162 3161 3160 3161 3158 3157 3158 3157 3158 3159 3158 3158 3157 3157 3157 3158 3159 3160 3160 3161 3162 3162 3162 3162 3162 3161 3161 3162 3164 3167 3169 3170 3171 3172 3172 3173 3174 3176
3148 3150 3153 3153 3154 3157 3157 3159 3162 3163 3164 3163 3162 3162 3161 3160 3158 3158 3158 3159 3159 3160 3160 3160 3159 3159 3160 3161 3162 3163 3163 3164 3164 3165 3165 3165 3165 3165 3166 3166 3168 3170 3171 3172 3172 3172 3173 3174 3175
3149 3151 3153 3155 3157 3159 3159 3161 3163 3164 3164 3165 3163 3163 3163 3162 3160 3159 3159 3160 3160 3161 3162 3162 3162 3162 3162 3162 3164 3165 3165 3166 3167 3167 3168 3168 3168 3169 3169 3170 3171 3172 3173 3174 3175 3175 3175 3175 3176
3149 3152 3154 3155 3158 3160 3160 3163 3165 3165 3164 3165 3165 3163 3165 3163 3162 3161 3161 3161 3161 3162 3163 3163 3164 3164 3165 3165 3166 3167 3168 3168 3169 3169 3170 3170 3171 3171 3172 3173 3174 3174 3175 3176 3177 3178 3178 3179 3180
3150 3154 3156 3158 3159 3160 3161 3162 3163 3164 3165 3165 3165 3163 3165 3164 3163 3162 3162 3162 3163 3163 3164 3165 3166 3166 3167 3167 3168 3169 3169 3170 3171 3171 3171 3171 3172 3173 3174 3174 3175 3176 3177 3178 3179 3180 3181 3181 3182
3152 3155 3157 3158 3158 3161 3163 3163 3165 3166 3165 3165 3164 3166 3166 3165 3164 3163 3163 3163 3163 3164 3164 3165 3166 3167 3168 3169 3169 3170 3170 3171 3171 3172 3172 3173 3173 3174 3174 3175 3176 3177 3178 3179 3180 3181 3182 3182 3183
3154 3157 3157 3159 3160 3162 3163 3164 3166 3168 3165 3163 3164 3165 3166 3166 3165 3164 3163 3163 3163 3164 3164 3165 3166 3167 3168 3169 3170 3171 3171 3172 3172 3172 3172 3173 3173 3174 3175 3176 3176 3177 3178 3179 3180 3181 3182 3183 3184
3155 3155 3158 3158 3159 3160 3164 3163 3164 3164 3165 3166 3166 3165 3166 3166 3165 3165 3164 3163 3162 3163 3164 3164 3166 3167 3168 3169 3169 3170 3171 3172 3172 3172 3173 3174 3174 3175 3175 3175 3176 3177 3178 3179 3180 3180 3181 3182 3183
3157 3156 3157 3158 3159 3160 3161 3162 3163 3164 3165 3166 3166 3165 3165 3165 3165 3164 3164 3163 3163 3163 3163 3164 3164 3166 3167 3169 3169 3170 3170 3171 3172 3173 3173 3174 3174 3175 3175 3176 3176 3177 3177 3178 3179 3180 3181 3182 3182
3157 3155 3156 3157 3159 3161 3162 3162 3162 3164 3164 3164 3164 3164 3164 3164 3164 3163 3163 3163 3163 3163 3163 3163 3164 3164 3166 3167 3168 3169 3170 3171 3171 3172 3173 3174 3174 3175 3175 3176 3176 3177 3177 3178 3178 3179 3180 3181 3182
3156 3156 3157 3157 3158 3160 3161 3161 3161 3163 3162 3162 3161 3162 3162 3162 3162 3162 3162 3162 3162 3162 3163 3163 3163 3164 3164 3165 3166 3167 3168 3169 3169 3171 3172 3172 3173 3173 3174 3175 3175 3176 3176 3176 3177 3178 3179 3179 3181
3156 3157 3158 3158 3159 3160 3160 3160 3161 3161 3160 3160 3159 3159 3158 3158 3158 3158 3157 3158 3160 3161 3161 3162 3162 3162 3163 3163 3165 3165 3167 3167 3168 3168 3169 3170 3171 3172 3172 3173 3174 3174 3175 3175 3176 3176 3177 3178 3178
3157 3158 3158 3158 3158 3160 3161 3159 3160 3160 3159 3158 3157 3156 3155 3155 3154 3155 3156 3157 3158 3158 3159 3161 3161 3161 3162 3162 3163 3164 3164 3165 3166 3166 3167 3168 3168 3169 3170 3171 3172 3172 3173 3174 3174 3175 3175 3176 3176
3156 3156 3157 3158 3158 3159 3160 3157 3158 3158 3157 3156 3154 3153 3152 3152 3151 3152 3153 3154 3155 3156 3156 3158 3159 3159 3160 3161 3161 3161 3162 3163 3163 3164 3164 3165 3166 3167 3168 3169 3169 3170 3171 3171 3172 3172 3173 3174 3174
3156 3156 3156 3157 3158 3158 3158 3156 3156 3156 3155 3154 3152 3152 3150 3149 3148 3148 3149 3150 3153 3154 3155 3154 3157 3157 3158 3159 3159 3160 3160 3161 3161 3162 3162 3163 3164 3164 3165 3166 3167 3168 3168 3169 3170 3170 3171 3171 3172
3154 3154 3156 3155 3157 3158 3157 3155 3154 3154 3154 3152 3151 3150 3149 3147 3145 3144 3144 3146 3148 3151 3152 3151 3153 3155 3156 3157 3158 3158 3158 3159 3159 3159 3160 3161 3161 3162 3162 3163 3164 3165 3166 3166 3167 3168 3168 3169 3169
3153 3155 3156 3155 3155 3156 3155 3154 3153 3152 3152 3151 3150 3148 3147 3145 3144 3142 3141 3141 3143 3144 3146 3148 3148 3151 3153 3154 3155 3155 3156 3157 3157 3157 3157 3158 3159 3159 3160 3161 3161 3161 3162 3163 3164 3164 3165 3166 3166
3153 3154 3154 3154 3153 3155 3155 3154 3152 3151 3150 3149 3148 3147 3146 3144 3142 3140 3139 3138 3138 3140 3141 3142 3144 3147 3148 3150 3152 3152 3154 3154 3154 3154 3155 3155 3156 3156 3156 3156 3157 3157 3158 3158 3159 3160 3161 3162 3163
3153 3152 3152 3152 3153 3153 3153 3153 3151 3149 3148 3147 3146 3146 3145 3143 3141 3139 3137 3136 3136 3137 3139 3140 3140 3141 3144 3147 3148 3150 3151 3151 3151 3152 3153 3153 3152 3152 3152 3152 3152 3153 3153 3154 3154 3154 3156 3156 3158
3149 3149 3150 3150 3151 3152 3151 3153 3148 3147 3146 3145 3145 3145 3144 3143 3141 3139 3137 3136 3135 3135 3135 3137 3139 3142 3143 3145 3145 3146 3147 3148 3148 3149 3149 3149 3149 3148 3148 3148 3148 3148 3148 3148 3149 3149 3150 3151 3152
3149 3149 3148 3147 3148 3147 3143 3145 3147 3146 3144 3143 3144 3144 3144 3143 3142 3140 3138 3137 3136 3134 3134 3134 3135 3137 3138 3140 3142 3143 3144 3144 3145 3145 3146 3146 3145 3145 3144 3144 3144 3143 3143 3144 3143 3144 3144 3145 3146
3147 3147 3147 3149 3147 3143 3140 3143 3143 3142 3141 3141 3142 3143 3143 3142 3142 3141 3140 3138 3137 3136 3135 3134 3134 3134 3134 3135 3136 3138 3140 3140 3141 3142 3142 3142 3141 3141 3141 3140 3140 3139 3138 3138 3138 3138 3139 3139 3139
3146 3148 3146 3144 3142 3142 3140 3140 3140 3139 3139 3139 3140 3141 3141 3141 3141 3141 3140 3140 3139 3138 3137 3135 3135 3134 3134 3134 3134 3135 3135 3136 3137 3137 3137 3138 3137 3136 3135 3134 3134 3133 3132 3131 3131 3131 3132 3131 3132
3145 3144 3146 3144 3140 3137 3135 3137 3136 3136 3137 3136 3137 3139 3140 3140 3140 3140 3140 3140 3140 3139 3138 3137 3136 3135 3134 3134 3134 3133 3133 3134 3134 3133 3133 3132 3132 3131 3130 3129 3127 3126 3125 3124 3123 3123 3124 3122 3123
3142 3144 3143 3142 3142 3138 3128 3132 3134 3132 3134 3135 3134 3135 3137 3137 3138 3138 3138 3138 3138 3138 3138 3137 3136 3135 3135 3134 3133 3132 3132 3131 3130 3129 3129 3128 3127 3126 3125 3124 3122 3121 3120 3118 3117 3116 3116 3115 3115
3140 3140 3142 3141 3138 3136 3135 3135 3134 3133 3132 3133 3133 3133 3133 3134 3135 3135 3135 3135 3135 3135 3134 3134 3133 3132 3131 3131 3130 3129 3129 3128 3127 3126 3125 3124 3123 3121 3120 3119 3118 3117 3115 3113 3113 3112 3110 3109 3108
3137 3136 3136 3138 3136 3134 3134 3134 3134 3133 3131 3131 3130 3131 3132 3132 3131 3131 3130 3130 3130 3130 3129 3129 3128 3128 3127 3126 3124 3123 3123 3122 3121 3120 3119 3118 3117 3115 3115 3113 3112 3111 3109 3107 3108 3106 3105 3104 3103